Location: McCall
(45.0000°N, 116.0000°W)
Time: 17:39:35
(UTC-06:00)

Amateur Radio Satellites - All Passes

Search period start: 30 October 2014 17:09
Search period end: 31 October 2014 17:09
Location: McCall, 45.0000°N, 116.0000°W

Satellite Date Start Highest point End Downlink Frequencies (MHz)
Time Altitude Azimuth
ISS 30 Oct 17:28:12 17:31:33 81° 211° (SSW) 17:34:53 145.800 FM
JAS-2 30 Oct 17:35:23 17:41:23 44° 65° (ENE) 17:48:07 435.800 - 435.900 CW/SSB, 435.910 FM
Uosat F 30 Oct 17:55:31 18:00:15 41° 262° (W) 18:05:02 435.120 FM
Hamsat 30 Oct 18:05:24 18:09:14 36° 70° (ENE) 18:13:05 145.90 MHz
KITSAT 1 30 Oct 18:08:40 18:14:17 20° 19° (NNE) 18:19:53 435.175 FM
OPAL 30 Oct 18:19:38 18:23:34 23° 96° (E) 18:27:29 ?
AO-7 30 Oct 18:48:52 18:54:52 22° 269° (W) 19:00:54 29.400 - 29.500 MHz
ISS 30 Oct 19:06:19 19:07:45 12° 228° (SW) 19:09:12 145.800 FM
JAS-2 30 Oct 19:20:46 19:26:32 37° 267° (W) 19:33:02 435.800 - 435.900 CW/SSB, 435.910 FM
Oscar 10/S400 30 Oct 19:27:41 19:52:05 52° 185° (S) 03:37:58 145.825 - 145.975 CW/USB, Beacon 145.810 USB
SO-67 30 Oct 19:31:36 19:34:47 37° 72° (ENE) 19:38:00 435.3500 MHz FM
Hamsat 30 Oct 19:42:08 19:45:18 21° 267° (W) 19:48:29 145.90 MHz
SO-50 30 Oct 19:53:18 19:57:33 30° 42° (NE) 20:01:49 436.795 FM
AO-40 30 Oct 19:54:42 01:13:14 37° 154° (SSE) 02:53:16 Beacon 2401.320
OPAL 30 Oct 19:57:57 20:02:40 45° 293° (WNW) 20:07:22 ?
KITSAT 1 30 Oct 20:04:07 20:11:56 49° 46° (NE) 20:19:41 435.175 FM
HO-68 30 Oct 20:13:25 20:19:01 26° 55° (NE) 20:24:37 435.675 MHz FM
STRAND 1 30 Oct 20:13:59 20:18:53 42° 98° (E) 20:23:45 ?
RS-15 30 Oct 20:27:35 20:34:22 19° 98° (E) 20:41:05 29.354 - 29.394 USB, Beacon 29.352 USB
UOSAT-12 30 Oct 20:42:08 20:44:46 15° 30° (NNE) 20:47:22 437.025 FM, 437.400 FM
SO-67 30 Oct 21:06:09 21:07:56 14° 269° (W) 21:09:44 435.3500 MHz FM
SO-50 30 Oct 21:33:39 21:38:18 48° 241° (WSW) 21:43:00 436.795 FM
UKube-1 30 Oct 21:44:21 21:48:06 29° 67° (ENE) 21:51:53 145.840 MHz, 145.915 MHz
ZACube-1 30 Oct 21:53:12 21:55:55 16° 62° (ENE) 21:58:36 437.345 MHz
STRAND 1 30 Oct 21:53:35 21:57:52 27° 296° (WNW) 22:02:08 ?
HO-68 30 Oct 21:58:53 22:06:03 75° 255° (WSW) 22:13:17 435.675 MHz FM
KITSAT 1 30 Oct 21:59:44 22:07:20 47° 248° (WSW) 22:14:55 435.175 FM
Oscar 11 30 Oct 22:19:22 22:23:37 59° 73° (ENE) 22:27:52 145.825 FM, Beacon 2401.500 USB
UOSAT-12 30 Oct 22:21:11 22:25:53 61° 51° (NE) 22:30:30 437.025 FM, 437.400 FM
RS-15 30 Oct 22:33:49 22:44:45 77° 120° (ESE) 22:55:40 29.354 - 29.394 USB, Beacon 29.352 USB
FUNcube-1 30 Oct 22:34:29 22:38:40 38° 70° (ENE) 22:42:47 145.950 - 145.970 MHz USB
UKube-1 30 Oct 23:20:26 23:24:14 29° 264° (W) 23:28:04 145.840 MHz, 145.915 MHz
ZACube-1 30 Oct 23:27:22 23:31:51 62° 259° (W) 23:36:17 437.345 MHz
MaSat-1 30 Oct 23:38:04 23:41:56 76° 298° (WNW) 23:45:24 437.345 MHz
HO-68 30 Oct 23:51:36 23:54:56 14° 274° (W) 23:58:17 435.675 MHz FM
Oscar 11 30 Oct 23:57:55 00:00:11 14° 270° (W) 00:02:27 145.825 FM, Beacon 2401.500 USB
UOSAT-12 31 Oct 00:02:18 00:05:35 19° 249° (WSW) 00:08:49 437.025 FM, 437.400 FM
FUNcube-1 31 Oct 00:11:33 00:15:09 23° 266° (W) 00:18:42 145.950 - 145.970 MHz USB
RS-15 31 Oct 00:48:01 00:58:08 41° 327° (NNW) 01:08:24 29.354 - 29.394 USB, Beacon 29.352 USB
JAS-1B 31 Oct 01:49:08 01:53:40 17° 90° (E) 01:58:37 435.800 - 435.900 CW/SSB
Oscar 16 31 Oct 01:54:38 01:56:19 12° 87° (E) 01:58:00 437.025 USB, Beacon 2401.1428
Sapphire 31 Oct 02:07:29 02:09:25 12° 102° (ESE) 02:11:20 437.095 MHz 1200 baud AX-25 AFSK
PCSat 31 Oct 02:26:58 02:30:49 20° 106° (ESE) 02:34:41 145.825 MHz
AO-Echo 31 Oct 02:32:38 02:35:42 15° 88° (E) 02:38:45 ?
ITAMSAT 1 31 Oct 02:34:55 02:36:10 11° 87° (E) 02:37:26 435.822 SSB
Oscar 19 31 Oct 02:44:33 02:49:11 34° 96° (E) 02:53:48 437.125 CW, 437.150 USB
RS-15 31 Oct 03:05:35 03:14:27 27° 1° (N) 03:23:31 29.354 - 29.394 USB, Beacon 29.352 USB
AO-27 31 Oct 03:19:45 03:24:20 30° 95° (E) 03:28:51 436.795 MHz FM
Oscar 16 31 Oct 03:31:14 03:36:24 89° 105° (ESE) 03:41:31 437.025 USB, Beacon 2401.1428
Gurwin Techsat 1B 31 Oct 03:32:57 03:37:02 22° 92° (E) 03:41:05 435.225 FM
JAS-1B 31 Oct 03:37:52 03:44:54 85° 105° (ESE) 03:53:21 435.800 - 435.900 CW/SSB
TMSAT-1 31 Oct 03:39:53 03:43:36 19° 91° (E) 03:47:18 436.925 FM
Sapphire 31 Oct 03:46:32 03:51:56 82° 120° (ESE) 03:57:23 437.095 MHz 1200 baud AX-25 AFSK
Uribyol 2 31 Oct 04:03:21 04:08:35 76° 103° (ESE) 04:13:46 436.500 FM
PCSat 31 Oct 04:08:20 04:13:43 65° 305° (NW) 04:19:08 145.825 MHz
AO-Echo 31 Oct 04:09:42 04:15:03 76° 286° (WNW) 04:20:19 ?
ITAMSAT 1 31 Oct 04:11:12 04:16:28 84° 104° (ESE) 04:21:40 435.822 SSB
Oscar 19 31 Oct 04:23:56 04:28:29 33° 294° (WNW) 04:33:01 437.125 CW, 437.150 USB
AO-7 31 Oct 04:53:02 04:59:36 25° 92° (E) 05:06:07 29.400 - 29.500 MHz
AO-27 31 Oct 04:59:05 05:03:54 38° 293° (WNW) 05:08:41 436.795 MHz FM
Gurwin Techsat 1B 31 Oct 05:12:08 05:17:19 53° 290° (WNW) 05:22:27 435.225 FM
Oscar 16 31 Oct 05:12:27 05:15:01 14° 303° (WNW) 05:17:35 437.025 USB, Beacon 2401.1428
TMSAT-1 31 Oct 05:18:42 05:23:56 61° 288° (WNW) 05:29:09 436.925 FM
RS-15 31 Oct 05:20:17 05:30:41 43° 35° (NE) 05:41:25 29.354 - 29.394 USB, Beacon 29.352 USB
JAS-1B 31 Oct 05:29:53 05:34:57 22° 302° (WNW) 05:40:38 435.800 - 435.900 CW/SSB
Sapphire 31 Oct 05:31:56 05:36:02 21° 321° (NW) 05:40:09 437.095 MHz 1200 baud AX-25 AFSK
OPAL 31 Oct 05:36:01 05:40:59 54° 68° (ENE) 05:45:54 ?
Uribyol 2 31 Oct 05:44:13 05:47:27 17° 302° (WNW) 05:50:39 436.500 FM
AO-Echo 31 Oct 05:50:44 05:52:54 13° 305° (NW) 05:55:04 ?
ITAMSAT 1 31 Oct 05:52:17 05:55:16 16° 303° (WNW) 05:58:14 435.822 SSB
PCSat 31 Oct 05:55:00 05:58:13 16° 327° (NNW) 06:01:27 145.825 MHz
STRAND 1 31 Oct 05:56:46 05:58:33 12° 55° (NE) 06:00:19 ?
Uosat F 31 Oct 06:00:52 06:05:49 52° 100° (E) 06:10:43 435.120 FM
Saudisat 1A 31 Oct 06:22:05 06:25:48 27° 115° (ESE) 06:29:32 436.775 MHz
JAS-2 31 Oct 06:26:54 06:34:08 38° 94° (E) 06:41:08 435.800 - 435.900 CW/SSB, 435.910 FM
AO-7 31 Oct 06:44:50 06:53:10 78° 292° (WNW) 07:01:29 29.400 - 29.500 MHz
OPAL 31 Oct 07:16:24 07:20:10 21° 265° (W) 07:23:55 ?
Hamsat 31 Oct 07:24:21 07:28:32 58° 100° (E) 07:32:42 145.90 MHz
STRAND 1 31 Oct 07:31:43 07:36:51 75° 73° (ENE) 07:42:01 ?
RS-15 31 Oct 07:32:53 07:43:59 74° 241° (WSW) 07:55:35 29.354 - 29.394 USB, Beacon 29.352 USB
Uosat F 31 Oct 07:40:24 07:44:15 22° 298° (WNW) 07:48:05 435.120 FM
MaSat-1 31 Oct 07:46:10 07:47:59 17° 52° (NE) 07:49:42 437.345 MHz
Saudisat 1A 31 Oct 08:01:06 08:05:13 39° 313° (NW) 08:09:23 436.775 MHz
JAS-2 31 Oct 08:11:43 08:19:17 53° 293° (WNW) 08:26:41 435.800 - 435.900 CW/SSB, 435.910 FM
SO-67 31 Oct 08:25:34 08:28:44 33° 97° (E) 08:31:54 435.3500 MHz FM
AO-7 31 Oct 08:38:59 08:44:43 21° 313° (NW) 08:50:27 29.400 - 29.500 MHz
Hamsat 31 Oct 09:01:37 09:04:02 15° 297° (WNW) 09:06:27 145.90 MHz
STRAND 1 31 Oct 09:13:47 09:16:36 15° 271° (W) 09:19:26 ?
MaSat-1 31 Oct 09:21:48 09:23:12 14° 253° (WSW) 09:24:34 437.345 MHz
HO-68 31 Oct 09:25:47 09:30:39 19° 89° (E) 09:35:29 435.675 MHz FM
Saudisat 1A 31 Oct 09:45:46 09:46:01 10° 335° (NNW) 09:46:16 436.775 MHz
RS-15 31 Oct 09:47:35 09:54:24 19° 262° (W) 10:01:25 29.354 - 29.394 USB, Beacon 29.352 USB
JAS-2 31 Oct 09:59:13 10:02:36 14° 313° (NW) 10:05:59 435.800 - 435.900 CW/SSB, 435.910 FM
SO-67 31 Oct 09:59:17 10:01:27 16° 294° (WNW) 10:03:36 435.3500 MHz FM
ISS 31 Oct 10:13:56 10:14:51 11° 131° (SE) 10:15:47 145.800 FM
KITSAT 1 31 Oct 10:36:54 10:42:39 22° 103° (ESE) 10:48:25 435.175 FM
Sapphire 31 Oct 10:49:57 10:54:02 21° 39° (NE) 10:58:05 437.095 MHz 1200 baud AX-25 AFSK
UKube-1 31 Oct 11:06:02 11:10:09 39° 98° (E) 11:14:13 145.840 MHz, 145.915 MHz
PCSat 31 Oct 11:11:22 11:16:05 29° 45° (NE) 11:20:47 145.825 MHz
HO-68 31 Oct 11:11:58 11:19:13 85° 288° (WNW) 11:26:24 435.675 MHz FM
ZACube-1 31 Oct 11:15:23 11:18:36 21° 93° (E) 11:21:46 437.345 MHz
Oscar 11 31 Oct 11:40:57 11:45:17 88° 284° (WNW) 11:49:36 145.825 FM, Beacon 2401.500 USB
ISS 31 Oct 11:47:42 11:51:01 74° 148° (SSE) 11:54:21 145.800 FM
SO-50 31 Oct 11:50:25 11:54:30 35° 116° (ESE) 11:58:42 436.795 FM
FUNcube-1 31 Oct 11:57:37 12:01:47 60° 101° (E) 12:05:52 145.950 - 145.970 MHz USB
KITSAT 1 31 Oct 12:28:57 12:37:03 87° 303° (WNW) 12:45:11 435.175 FM
Sapphire 31 Oct 12:32:41 12:38:09 84° 240° (WSW) 12:43:35 437.095 MHz 1200 baud AX-25 AFSK
UOSAT-12 31 Oct 12:37:55 12:38:57 11° 106° (ESE) 12:40:00 437.025 FM, 437.400 FM
JAS-1B 31 Oct 12:40:18 12:42:54 13° 52° (NE) 12:45:32 435.800 - 435.900 CW/SSB
UKube-1 31 Oct 12:42:43 12:46:06 22° 296° (WNW) 12:49:29 145.840 MHz, 145.915 MHz
ZACube-1 31 Oct 12:51:16 12:55:08 36° 291° (WNW) 12:58:55 437.345 MHz
PCSat 31 Oct 12:54:31 12:59:47 53° 245° (WSW) 13:05:02 145.825 MHz
HO-68 31 Oct 13:01:03 13:05:56 20° 308° (NW) 13:10:49 435.675 MHz FM
Saudisat 1A 31 Oct 13:08:45 13:09:43 11° 26° (NNE) 13:10:41 436.775 MHz
Oscar 16 31 Oct 13:12:28 13:16:25 23° 62° (ENE) 13:20:22 437.025 USB, Beacon 2401.1428
Oscar 11 31 Oct 13:20:06 13:20:45 10° 302° (WNW) 13:21:24 145.825 FM, Beacon 2401.500 USB
ISS 31 Oct 13:24:55 13:27:57 31° 347° (NNW) 13:30:58 145.800 FM
SO-50 31 Oct 13:30:54 13:35:03 34° 316° (NW) 13:39:20 436.795 FM
FUNcube-1 31 Oct 13:35:25 13:37:41 14° 299° (WNW) 13:39:55 145.950 - 145.970 MHz USB
Uribyol 2 31 Oct 13:45:39 13:49:27 21° 61° (ENE) 13:53:15 436.500 FM
AO-Echo 31 Oct 13:47:08 13:51:07 24° 62° (ENE) 13:55:12 ?
ITAMSAT 1 31 Oct 13:53:23 13:57:22 23° 62° (ENE) 14:01:22 435.822 SSB
Oscar 19 31 Oct 14:03:14 14:08:16 60° 72° (ENE) 14:13:19 437.125 CW, 437.150 USB
AO-7 31 Oct 14:08:38 14:10:59 11° 36° (NE) 14:13:21 29.400 - 29.500 MHz
UOSAT-12 31 Oct 14:13:38 14:18:17 83° 124° (SE) 14:23:02 437.025 FM, 437.400 FM
Sapphire 31 Oct 14:18:32 14:20:42 12° 258° (WSW) 14:22:51 437.095 MHz 1200 baud AX-25 AFSK
KITSAT 1 31 Oct 14:26:48 14:33:36 29° 327° (NNW) 14:40:26 435.175 FM
JAS-1B 31 Oct 14:26:54 14:32:38 84° 74° (ENE) 14:38:26 435.800 - 435.900 CW/SSB
AO-27 31 Oct 14:39:38 14:44:43 55° 70° (ENE) 14:49:50 436.795 MHz FM
Saudisat 1A 31 Oct 14:46:14 14:50:28 42° 47° (NE) 14:54:40 436.775 MHz
Oscar 16 31 Oct 14:50:24 14:55:25 52° 260° (W) 15:00:27 437.025 USB, Beacon 2401.1428
Gurwin Techsat 1B 31 Oct 14:55:43 15:00:40 42° 68° (ENE) 15:05:39 435.225 FM
TMSAT-1 31 Oct 15:02:13 15:07:01 36° 67° (ENE) 15:11:50 436.925 FM
ISS 31 Oct 15:02:23 15:05:16 26° 7° (N) 15:08:10 145.800 FM
SO-50 31 Oct 15:16:50 15:17:04 10° 339° (NNW) 15:17:18 436.795 FM
Uribyol 2 31 Oct 15:23:19 15:28:28 60° 259° (WSW) 15:33:40 436.500 FM
AO-Echo 31 Oct 15:24:43 15:29:33 48° 261° (W) 15:34:34 ?
ITAMSAT 1 31 Oct 15:31:23 15:36:29 54° 259° (W) 15:41:38 435.822 SSB
Uosat F 31 Oct 15:40:37 15:42:59 13° 56° (ENE) 15:45:21 435.120 FM
Oscar 19 31 Oct 15:44:29 15:48:00 19° 269° (W) 15:51:33 437.125 CW, 437.150 USB
AO-7 31 Oct 15:53:59 16:01:35 42° 59° (ENE) 16:09:12 29.400 - 29.500 MHz
UOSAT-12 31 Oct 15:55:37 15:59:03 20° 325° (NW) 16:02:31 437.025 FM, 437.400 FM
AO-27 31 Oct 16:20:43 16:24:34 21° 268° (W) 16:28:28 436.795 MHz FM
JAS-1B 31 Oct 16:21:57 16:24:15 12° 273° (W) 16:26:35 435.800 - 435.900 CW/SSB
Saudisat 1A 31 Oct 16:26:11 16:29:50 26° 246° (WSW) 16:33:28 436.775 MHz
KITSAT 1 31 Oct 16:27:28 16:32:13 16° 356° (N) 16:36:58 435.175 FM
Gurwin Techsat 1B 31 Oct 16:36:14 16:40:46 28° 266° (W) 16:45:19 435.225 FM
ISS 31 Oct 16:39:03 16:42:23 65° 27° (NNE) 16:45:43 145.800 FM
TMSAT-1 31 Oct 16:42:13 16:46:57 33° 264° (W) 16:51:43 436.925 FM
JAS-2 31 Oct 16:42:31 16:47:14 21° 54° (NE) 16:52:18 435.800 - 435.900 CW/SSB, 435.910 FM
